Location: Albany
(35.0170°S, 117.8920°E)
Time: 02:46:51
(UTC+08:00)

Vanguard 1 - Pass Details

Date: 28 January 2021
Orbit: 649 x 3833 km, 34.2° (Epoch: 25 February)

Event Time Altitude Azimuth Distance (km) Brightness Sun altitude
Rises 05:23:17 0° 263° (W) 2,982 12.0 -0.9°
Reaches altitude 10° 05:25:36 10° 272° (W) 2,065 11.2 -0.4°
Maximum altitude 05:29:45 37° 340° (NNW) 1,106 10.1 0.3°
Drops below altitude 10° 05:34:59 10° 47° (NE) 2,622 12.7 1.3°
Sets 05:38:19 0° 54° (NE) 3,928 13.7 2.0°
